"Pseudo-MPEC" for DH4N125

Created 2024 Nov 26 18:31:06 UT using Find_Orb

Click here for an explanation of pseudo-MPECs

 
 Astrometry: 
     DH4N125*0B2024 10 31.93506903 32 01.254+06 12 30.66   ~B2HV 20.6 VZNEOCPM49
     DH4N125 0B2024 10 31.94209003 32 01.591+06 12 31.23   ~B2HV 21.0 VZNEOCPM49
     DH4N125 0B2024 10 31.94911203 32 01.854+06 12 30.55   ~B2HV 20.3 VZNEOCPM49
     DH4N125 0B2024 11 03.02839703 34 00.720+06 12 40.59   ~B36V       ZNEOCPM49
     DH4N125 0B2024 11 03.04547103 34 01.414+06 12 40.58   ~B36V       ZNEOCPM49

Station data:
(M49) IAS Remote Observatory, Hakos  (S23.236549 E16.361720)  Namibia.
   Observers D. Husar, M. Junius. Measurer D. Husar. 0.25-m f/4.6 reflector +
   CCD.

Orbital elements:  DH4N125
   Perihelion 2024 Dec 5.25540 +/- 36 TT =  6:07:46 (JD 2460649.75540)
Epoch 2024 Nov  3.0 TT = JDT 2460617.5   Earth MOID: 0.2091   Ma: 0.0097
M 347.89398356 +/- 13               (J2000 ecliptic)             AutoNEOCP
n   0.37531749 +/- 0.149            Peri.  316.76725 +/- 70
a   1.90342971 +/- 0.504            Node   114.28810 +/- 39
e   0.3737464 +/- 0.133             Incl.    2.67115 +/- 0.9
P   2.626/959.170d         H 22.33  G  0.15   U 11.5  SR
q 1.19202962 +/- 0.155    Q 2.61482981 +/- 1.65
From 5 observations 2024 Oct. 31-Nov. 3; mean residual 0".32
Residuals in arcseconds: 
241031 M49  .13+  .21-    241031 M49  .50-  .21-    241103 M49  .39-  .14-    
241031 M49  .36+  .41+    241103 M49  .40+  .15+    

Ephemerides (geocentric):
Date (UTC) HH   RA             Dec           delta  r     elong  mag " sig PA
---- --------  ------------   ------------  ------ ------ -----  --- --------
2024 11 26 19  03 55 04.156   +08 23 52.59  .21264 1.1948 166.8 20.0  32d  91
2024 11 26 20  03 55 06.451   +08 24 21.07  .21263 1.1948 166.8 20.0  32d  91
2024 11 26 21  03 55 08.748   +08 24 49.60  .21262 1.1948 166.7 20.0  32d  91
2024 11 26 22  03 55 11.046   +08 25 18.18  .21260 1.1947 166.7 20.0  32d  91
2024 11 26 23  03 55 13.345   +08 25 46.81  .21259 1.1947 166.7 20.0  32d  91
2024 11 27 00  03 55 15.646   +08 26 15.50  .21258 1.1947 166.7 20.0  33d  90
2024 11 27 01  03 55 17.948   +08 26 44.23  .21257 1.1946 166.7 20.0  33d  90
2024 11 27 02  03 55 20.251   +08 27 13.02  .21255 1.1946 166.7 20.0  33d  90
2024 11 27 03  03 55 22.555   +08 27 41.86  .21254 1.1946 166.7 20.0  33d  90
2024 11 27 04  03 55 24.861   +08 28 10.75  .21253 1.1946 166.7 20.0  33d  90
2024 11 27 05  03 55 27.168   +08 28 39.70  .21252 1.1945 166.7 20.0  33d  90
2024 11 27 06  03 55 29.476   +08 29 08.69  .21250 1.1945 166.7 20.0  34d  90
2024 11 27 07  03 55 31.785   +08 29 37.74  .21249 1.1945 166.7 20.0  34d  90
2024 11 27 08  03 55 34.096   +08 30 06.84  .21248 1.1945 166.6 20.0  34d  90
2024 11 27 09  03 55 36.408   +08 30 35.99  .21247 1.1944 166.6 20.0  34d  90
2024 11 27 10  03 55 38.722   +08 31 05.19  .21246 1.1944 166.6 20.0  34d  90
2024 11 27 11  03 55 41.037   +08 31 34.44  .21245 1.1944 166.6 20.0  34d  90
2024 11 27 12  03 55 43.353   +08 32 03.75  .21244 1.1944 166.6 20.0  34d  90
2024 11 27 13  03 55 45.670   +08 32 33.10  .21243 1.1943 166.6 20.0  34d  90
2024 11 27 14  03 55 47.989   +08 33 02.51  .21241 1.1943 166.6 20.0  35d  90
2024 11 27 15  03 55 50.310   +08 33 31.97  .21240 1.1943 166.6 20.0  35d  89
2024 11 27 16  03 55 52.631   +08 34 01.48  .21239 1.1943 166.6 20.0  35d  89
2024 11 27 17  03 55 54.954   +08 34 31.04  .21238 1.1942 166.5 20.0  35d  89
2024 11 27 18  03 55 57.278   +08 35 00.65  .21237 1.1942 166.5 20.0  35d  89
2024 11 27 19  03 55 59.604   +08 35 30.31  .21236 1.1942 166.5 20.0  35d  89
2024 11 27 20  03 56 01.931   +08 36 00.03  .21235 1.1942 166.5 20.0  35d  89
2024 11 27 21  03 56 04.260   +08 36 29.79  .21235 1.1941 166.5 20.0  35d  89
2024 11 27 22  03 56 06.589   +08 36 59.61  .21234 1.1941 166.5 20.0  35d  89
2024 11 27 23  03 56 08.921   +08 37 29.48  .21233 1.1941 166.5 20.0  36d  89
2024 11 28 00  03 56 11.253   +08 37 59.40  .21232 1.1941 166.5 20.0  36d  89
2024 11 28 01  03 56 13.588   +08 38 29.36  .21231 1.1940 166.5 20.0  36d  89
2024 11 28 02  03 56 15.923   +08 38 59.38  .21230 1.1940 166.5 20.0  36d  89
2024 11 28 03  03 56 18.260   +08 39 29.46  .21229 1.1940 166.4 20.0  36d  89
2024 11 28 04  03 56 20.599   +08 39 59.58  .21228 1.1940 166.4 20.0  36d  89
2024 11 28 05  03 56 22.938   +08 40 29.75  .21228 1.1940 166.4 20.0  36d  89
2024 11 28 06  03 56 25.280   +08 40 59.97  .21227 1.1939 166.4 20.0  36d  89
2024 11 28 07  03 56 27.622   +08 41 30.25  .21226 1.1939 166.4 20.0  36d  89
2024 11 28 08  03 56 29.967   +08 42 00.57  .21225 1.1939 166.4 20.0  36d  89
2024 11 28 09  03 56 32.312   +08 42 30.95  .21225 1.1939 166.4 20.0  36d  89
2024 11 28 10  03 56 34.660   +08 43 01.37  .21224 1.1938 166.4 20.0  37d  89
2024 11 28 11  03 56 37.008   +08 43 31.85  .21223 1.1938 166.3 20.0  37d  89
2024 11 28 12  03 56 39.358   +08 44 02.38  .21223 1.1938 166.3 20.0  37d  89
2024 11 28 13  03 56 41.710   +08 44 32.95  .21222 1.1938 166.3 20.0  37d  89
2024 11 28 14  03 56 44.063   +08 45 03.58  .21221 1.1938 166.3 20.0  37d  89
2024 11 28 15  03 56 46.418   +08 45 34.26  .21221 1.1937 166.3 20.0  37d  89
2024 11 28 16  03 56 48.774   +08 46 04.99  .21220 1.1937 166.3 20.0  37d  88
2024 11 28 17  03 56 51.132   +08 46 35.77  .21219 1.1937 166.3 20.0  37d  88
2024 11 28 18  03 56 53.491   +08 47 06.60  .21219 1.1937 166.3 20.0  37d  88